Voltar ao catálogo

STARLINK-37155

AtivoComunicaçõesSSO
NORAD 68314·PAYLOAD·🇺🇸 United States

Lançado Mar 20, 2026 de Vandenberg Space Force Base

Loading…

Próximas Passagens (próximas 24 horas)

TLE

AtualizadoSource: CelesTrak SupGP

Época: Sep 15, 2026, 03:20 UTC

1 68314C 26057W   26258.13937500  .00005789  00000+0  17969-3 0  2584
2 68314  97.2862  23.6232 0001163  93.0699 224.1248 15.33439123    11

Acompanhe STARLINK-37155 em tempo real com AllMySat

Download on the App Store